Flag for Poland Weather past 2 weeks in Gorzów Wielkopolski, Poland

Now
30 °F

Fog.


Feels Like: 30 °F
Forecast: 34 / 38 °F
Wind: 1 mph from South

Location: Gorzow Wlkp

Current Time: Jan 26, 2015 at 8:17:10 AM

Latest Report: Jan 26, 2015 at 7:00 AM


Visibility: 0 mi

Pressure: 30.27 "Hg

Humidity: 99%

Dew point: 30 °F

Location of Gorzów WielkopolskiLocation

Historic Weather in Gorzów Wielkopolski — Graph

°F

Gorzów Wielkopolski temperature yesterday

Maximum temperature yesterday: 34 °F (at 11:00 AM)
Minimum temperature yesterday: 31 °F (at 12:00 AM)
Average temperature yesterday: 33 °F

Past Weeks' High & Low Weather Summary

 TemperatureHumidityPressure
High52 °F (Jan 13, 8:00 PM)100% (Jan 19, 2:00 AM)30.30 "Hg (Jan 19, 2:00 AM)
Low26 °F (Jan 18, 8:00 AM)51% (Jan 13, 8:00 PM)29.59 "Hg (Jan 11, 8:00 AM)
Average36 °F88%29.95 "Hg
* Reported Jan 11 7:00 AM — Jan 26 7:00 AM, Gorzów Wielkopolski, Weather by CustomWeather, © 2014

Note: Actual official high and low records may vary slightly from our data, if they occured in-between our weather recording intervals... More about our weather records

Advertising

Gorzów Wielkopolski weather history for previous 24 hours

 ConditionsComfort  
Time TempWeatherWind HumidityBarometerVisibility
7:00 AM
Jan 26
30 °FFog.1 mph99%30.27 "Hg1 mi
6:00 AM30 °FFog.2 mph99%30.27 "Hg0 mi
5:00 AM29 °FSnow flurries. Low clouds.2 mph99%30.27 "Hg0 mi
3:00 AM31 °FFog.2 mph98%30.28 "Hg4 mi
2:00 AM32 °FFog.1 mph97%30.29 "Hg4 mi
1:00 AM32 °FLow clouds.1 mph97%30.29 "Hg5 mi
12:00 AM32 °FLight rain. Low clouds.2 mph96%30.29 "Hg4 mi
11:00 PM
Jan 25
32 °FLow clouds.1 mph95%30.30 "Hg6 mi
10:00 PM33 °FLow clouds.1 mph93%30.30 "Hg6 mi
9:00 PM33 °FOvercast.2 mph92%30.29 "Hg6 mi
8:00 PM33 °FOvercast.1 mph92%30.29 "Hg6 mi
7:00 PM33 °FLow clouds.2 mph91%30.28 "Hg6 mi
6:00 PM33 °FLow clouds.2 mph90%30.28 "Hg7 mi
5:00 PM33 °FLow clouds.2 mph91%30.27 "Hg6 mi
4:00 PM34 °FFog.2 mph92%30.25 "Hg5 mi
3:00 PM33 °FFog.2 mph95%30.24 "Hg4 mi
2:00 PM33 °FFog.3 mph93%30.23 "Hg5 mi
1:00 PM34 °FLow clouds.2 mph95%30.23 "Hg4 mi
12:00 PM33 °FLight snow. Low clouds.2 mph96%30.23 "Hg2 mi
11:00 AM34 °FLow clouds.2 mph95%30.23 "Hg4 mi
10:00 AM34 °FDrizzle. Low clouds.2 mph96%30.22 "Hg2 mi
9:00 AM34 °FDrizzle. Low clouds.2 mph97%30.20 "Hg2 mi
8:00 AM33 °FDrizzle. Low clouds.2 mph97%30.18 "Hg2 mi
Weather by CustomWeather, © 2014

See weather overviewHow to use our weather pages